Weather History for Goshen, IN

Change the Weather History Date:

Tuesday, December 4, 2012

  Actual Average Record
Temperature  
Mean Temperature 51 °F -  
Max Temperature 63 °F 38 °F 63 °F (1970)
Min Temperature 39 °F 26 °F 1 °F (2002)
Degree Days  
Heating Degree Days 14    
Growing Degree Days 1 (Base 50)    
Moisture  
Dew Point 45 °F    
Average Humidity 78    
Maximum Humidity 94    
Minimum Humidity 55    
Precipitation  
Precipitation 0.28 in - - ()
Sea Level Pressure  
Sea Level Pressure 30.02 in    
Wind  
Wind Speed 13 mph (West)    
Max Wind Speed 20 mph    
Max Gust Speed 26 mph    
Visibility 8 miles    
Events Rain    
Averages and records for this station are not official NWS values.
T = Trace of Precipitation, MM = Missing Value Source: NWS Daily Summary

Daily Weather History Graph

Daily Weather History Graph

Search for Another Location

Airport:

Trip Planner

Search our weather history database for the weather conditions in past years. The results will help you decide how hot, cold, wet, or windy it might be!

Date:

Astronomy

Dec. 04, 2012 Rise Set
Actual Time 7:53 AM EST 5:13 PM EST
Civil Twilight 7:22 AM EST 5:44 PM EST
Nautical Twilight 6:48 AM EST 6:18 PM EST
Astronomical Twilight 6:14 AM EST 6:52 PM EST
Moon 11:03 PM EST (12/4) 11:45 AM EST (12/4)
Length of Visible Light 10h 21m
Length of Day
9h 19m
Waning Gibbous, 69% of the Moon is Illuminated
Dec 4
Waning Gibbous
Dec 6
Last Quarter
Dec 13
New
Dec 20
First Quarter
Dec 28
Full

Hourly Weather History & Observations

Time (EST) Temp. Windchill Dew Point Humidity Pressure Visibility Wind Dir Wind Speed Gust Speed Precip Events Conditions
12:53 AM 63.0 °F - 55.0 °F 75% 29.92 in 10.0 mi SSW 17.3 mph 23.0 mph N/A   Overcast
1:17 AM 62.6 °F - 55.4 °F 77% 29.92 in 10.0 mi SSW 19.6 mph 26.5 mph N/A   Overcast
1:42 AM 62.6 °F - 55.4 °F 77% 29.91 in 10.0 mi SSW 16.1 mph - N/A   Overcast
1:53 AM 63.0 °F - 55.0 °F 75% 29.91 in 10.0 mi SSW 16.1 mph 24.2 mph N/A   Mostly Cloudy
2:18 AM 62.6 °F - 55.4 °F 77% 29.92 in 10.0 mi SSW 13.8 mph - N/A   Mostly Cloudy
2:43 AM 62.6 °F - 53.6 °F 72% 29.92 in 10.0 mi SSW 12.7 mph - N/A   Overcast
2:53 AM 62.1 °F - 54.0 °F 75% 29.92 in 10.0 mi SSW 12.7 mph - N/A   Overcast
3:12 AM 62.6 °F - 53.6 °F 72% 29.93 in 10.0 mi SSW 12.7 mph - N/A   Overcast
3:53 AM 62.1 °F - 54.0 °F 75% 29.92 in 10.0 mi SSW 12.7 mph - N/A   Overcast
4:53 AM 61.0 °F - 55.0 °F 81% 29.91 in 10.0 mi SSW 10.4 mph - 0.00 in   Overcast
5:32 AM 60.8 °F - 55.4 °F 82% 29.93 in 2.5 mi WSW 16.1 mph 23.0 mph 0.09 in Rain Heavy Rain
5:37 AM 57.2 °F - 55.4 °F 94% 29.94 in 2.5 mi NW 15.0 mph 25.3 mph 0.11 in Rain Rain
5:43 AM 55.4 °F - 53.6 °F 94% 29.94 in 2.5 mi NNW 12.7 mph 25.3 mph 0.12 in Rain Light Rain
6:06 AM 53.6 °F - 50.0 °F 88% 29.96 in 3.0 mi NNW 15.0 mph - 0.01 in Rain Light Rain
6:22 AM 51.8 °F - 46.4 °F 82% 29.98 in 4.0 mi NNW 13.8 mph - 0.03 in Rain Light Rain
6:28 AM 50.0 °F - 48.2 °F 94% 29.99 in 2.5 mi NNW 13.8 mph - 0.06 in Rain Heavy Rain
6:42 AM 50.0 °F - 46.4 °F 87% 29.99 in 3.0 mi NNW 15.0 mph - 0.12 in Rain Rain
6:53 AM 48.9 °F - 46.0 °F 90% 30.01 in 4.0 mi NW 10.4 mph - 0.14 in Rain Light Rain
7:13 AM 48.2 °F - 44.6 °F 87% 30.01 in 4.0 mi NNW 13.8 mph - 0.02 in Rain Rain
7:27 AM 48.2 °F - 44.6 °F 87% 30.02 in 7.0 mi NNW 11.5 mph - 0.03 in Rain Light Rain
7:53 AM 48.0 °F - 44.1 °F 86% 30.04 in 3.0 mi NNW 6.9 mph 19.6 mph 0.08 in Rain Rain
8:53 AM 46.9 °F - 43.0 °F 86% 30.04 in 9.0 mi North 5.8 mph - 0.02 in Rain Light Rain
9:53 AM 46.9 °F - 41.0 °F 80% 30.06 in 7.0 mi Calm Calm - 0.04 in Rain Light Rain
10:53 AM 48.0 °F - 42.1 °F 80% 30.07 in 10.0 mi SW 4.6 mph - 0.00 in   Overcast
11:53 AM 48.0 °F - 43.0 °F 83% 30.06 in 10.0 mi West 8.1 mph - N/A   Overcast
12:53 PM 50.0 °F - 44.1 °F 80% 30.05 in 10.0 mi West 9.2 mph - N/A   Mostly Cloudy
1:53 PM 52.0 °F - 44.1 °F 74% 30.06 in 10.0 mi West 11.5 mph - N/A   Clear
2:53 PM 53.1 °F - 37.0 °F 55% 30.05 in 10.0 mi WNW 10.4 mph - N/A   Overcast
3:53 PM 53.1 °F - 37.0 °F 55% 30.07 in 10.0 mi WNW 8.1 mph - N/A   Clear
4:53 PM 46.9 °F - 35.1 °F 63% 30.10 in 10.0 mi West 6.9 mph - N/A   Clear
5:53 PM 46.0 °F 43.9 °F 33.1 °F 61% 30.12 in 10.0 mi WSW 4.6 mph - N/A   Clear
6:53 PM 43.0 °F 40.3 °F 33.1 °F 68% 30.13 in 10.0 mi WSW 4.6 mph - N/A   Clear
7:53 PM 44.1 °F 39.5 °F 33.1 °F 65% 30.14 in 10.0 mi WSW 8.1 mph - N/A   Clear
8:53 PM 41.0 °F 36.4 °F 33.1 °F 73% 30.14 in 10.0 mi West 6.9 mph - N/A   Clear
9:53 PM 39.9 °F 35.1 °F 32.0 °F 73% 30.17 in 10.0 mi WSW 6.9 mph - N/A   Clear
10:53 PM 39.9 °F 35.1 °F 32.0 °F 73% 30.18 in 10.0 mi WNW 6.9 mph - N/A   Clear
11:53 PM 39.9 °F 33.9 °F 32.0 °F 73% 30.20 in 10.0 mi NW 9.2 mph - N/A   Clear